{"data":{"norad_id":60114,"epoch":"2026-05-24T14:35:31.377984Z","epoch_age_seconds":108835,"freshness":"FRESH","line1":"1 60114U 24118B   26144.60800206  .00001166  00000+0  14489-4 0  9990","line2":"2 60114  53.1594 207.2678 0001171  93.7082 266.4070 15.69695072109917","mean_motion":15.69695072,"eccentricity":0.0001171,"inclination_deg":53.1594,"raan_deg":207.2678,"arg_perigee_deg":93.7082,"mean_anomaly_deg":266.407,"bstar":1.4489e-5,"rev_number":10991,"period_min":91.737562644269,"perigee_km":358.98046013267,"apogee_km":360.55847782771,"semimajor_km":6737.9064689802,"source":"CELESTRAK","updated_at":"2026-05-25T13:38:19.165155Z"}}